Regional Weather Roundup
Issued by NWS Kansas City/Pleasant Hill, MO

Home | Current Version | Previous Version | Text Only | Print | Product List | Glossary On
Versions: 1 2 3 4 5 6 7 8 9 10 11 12 13 14 15 16 17 18 19 20 21 22 23 24 25 26 27 28 29 30 31 32 33 34 35 36 37 38 39 40 41 42 43 44 45 46 47 48 49 50
000
ASUS43 KEAX 071410
RWREAX

WEATHER ROUNDUP FOR EASTERN KANSAS AND NORTHWEST MISSOURI
NATIONAL WEATHER SERVICE KANSAS CITY/PLEASANT HILL MO
800 AM CST WED DEC 07 2016

KSZ040-057-103>105-MOZ028-029-037-043-071500-
...KANSAS CITY METROPOLITAN AREA...

CITY           SKY/WX    TMP DP  RH WIND       PRES   REMARKS
K.C. INTL      CLOUDY    27  13  55 N6        30.23R WCI  20
K.C. DOWNTOWN  CLOUDY    30  13  49 N6        30.23R WCI  24
LEES SUMMIT    CLOUDY    29  12  49 NE6       30.22R WCI  23
OLATHE - IXD   CLOUDY    29  14  53 NW8       30.23R WCI  21
OLATHE - OJC   CLOUDY    30  11  45 N6        30.22R WCI  24
LAWRENCE       CLOUDY    28  15  58 NW5       30.25R WCI  23

$$

MOZ001>008-011>017-020>025-030>033-038>040-044>046-053-054-071500-
...NORTHERN AND CENTRAL MISSOURI...

CITY           SKY/WX    TMP DP  RH WIND       PRES   REMARKS
ST. JOSEPH     CLOUDY    25  14  63 N14       30.25R WCI  13
MOSBY          CLOUDY    28  14  54 NW5       30.23R WCI  23
WARRENSBURG    CLOUDY    30  18  59 N5        30.21S WCI  25
WHITEMAN AFB   MOCLDY    30  15  53 N7        30.20R WCI  23
CLINTON        CLOUDY    30  19  64 CALM      30.21S
SEDALIA        CLOUDY    32  13  45 N5        30.21R WCI  27
WARSAW         NOT AVBL
CHILLICOTHE      N/A     25  15  66 VRB6      30.22S WCI  18
KIRKSVILLE     CLOUDY    25  14  63 W6        30.19S WCI  18

$$

MOZ041-047>049-056>058-063>065-088>090-097-071500-
...EASTERN AND SOUTHERN MISSOURI...

CITY           SKY/WX    TMP DP  RH WIND       PRES   REMARKS
ST. LOUIS INTL CLOUDY    33  17  51 W6        30.21R WCI  28
SPIRIT OF STL  CLOUDY    30  24  78 W6        30.22R WCI  24
COLUMBIA       CLOUDY    31  15  52 NW5       30.19R WCI  26
JEFFERSON CITY CLOUDY    29  21  72 SE3       30.22R
ROLLA          CLOUDY    28  23  81 S3        30.18R
OSAGE BEACH    CLOUDY    28  23  81 CALM      30.22R
SPRINGFIELD    PTCLDY    29  15  56 E7        30.18R WCI  22
BRANSON        MOCLDY    30  18  59 E8        30.18F WCI  23
JOPLIN         CLOUDY    32  17  54 E7        30.20R WCI  26
WEST PLAINS    PTCLDY    27  18  69 NE5       30.21R WCI  22

$$

IAZ060-094-KSZ022-034>040-054-083-096-NEZ052-066-093-071500-
...KANSAS...SOUTHEAST NEBRASKA AND IOWA...

CITY           SKY/WX    TMP DP  RH WIND       PRES   REMARKS
TOPEKA         CLOUDY    28  15  58 N9        30.27R WCI  19
MANHATTAN      CLOUDY    28  14  55 N5        30.27R WCI  23
EMPORIA        CLOUDY    29  16  58 N6        30.22R WCI  23
CHANUTE        CLOUDY    33  19  56 N6        30.21R WCI  28
WICHITA        CLOUDY    34  15  46 E8        30.19R WCI  27
OMAHA          MOCLDY    16   6  65 NW16      30.26R WCI   1
LINCOLN        CLOUDY    19   7  59 NW12      30.27S WCI   7
FALLS CITY     CLOUDY    23  13  65 NW9       30.26R WCI  13
LAMONI         CLOUDY    20  12  71 NW12      30.21R WCI   8
DES MOINES     CLOUDY    18   9  68 NW12      30.20R WCI   5

$$




USA.gov is the U.S. government's official web portal to all federal, state and local government web resources and services.